Flag for Fiji Weather past 2 weeks in Lautoka, Fiji

Now
75 °F

Partly sunny.


Feels Like: 74 °F
Forecast: 74 / 84 °F
Wind: No wind

Location: Nandi

Current Time: Oct 24, 2014 at 7:01:53 AM

Latest Report: Oct 24, 2014 at 6:00 AM


Visibility: N/A

Pressure: 29.86 "Hg

Humidity: 94%

Dew point: 73 °F

Location of LautokaLocation

Historic Weather in Lautoka — Graph

°F

Lautoka temperature yesterday

Maximum temperature yesterday: 84 °F (at 9:00 AM)
Minimum temperature yesterday: 75 °F (at 12:00 AM)
Average temperature yesterday: 80 °F

Past Weeks' High & Low Weather Summary

 TemperatureHumidityPressure
High93 °F (Oct 10, 1:00 PM)94% (Oct 10, 2:00 AM)30.01 "Hg (Oct 10, 2:00 AM)
Low64 °F (Oct 18, 5:00 AM)37% (Oct 16, 11:00 AM)29.80 "Hg (Oct 11, 4:00 PM)
Average78 °F73%29.90 "Hg
* Reported Oct 9 6:00 AM — Oct 24 6:00 AM, Lautoka, Weather by CustomWeather, © 2014

Note: Actual official high and low records may vary slightly from our data, if they occured in-between our weather recording intervals... More about our weather records

Advertising

Lautoka weather history for previous 24 hours

 ConditionsComfort  
Time TempWeatherWind HumidityBarometerVisibility
6:00 AM
Oct 24
75 °FPartly sunny.No wind94%29.86 "HgN/A
5:00 AM75 °FPassing clouds.No wind94%29.86 "HgN/A
4:00 AM75 °FPassing clouds.No wind94%29.86 "HgN/A
3:00 AM75 °FPassing clouds.No wind94%29.83 "HgN/A
2:00 AM75 °FPassing clouds.No wind94%29.86 "HgN/A
1:00 AM75 °FPassing clouds.No wind94%29.86 "HgN/A
12:00 AM77 °FPassing clouds.No wind94%29.89 "HgN/A
11:00 PM
Oct 23
77 °FPassing clouds.3 mph94%29.92 "HgN/A
10:00 PM77 °FPassing clouds.3 mph94%29.92 "HgN/A
9:00 PM81 °FPassing clouds.3 mph84%29.89 "HgN/A
8:00 PM81 °FPartly cloudy.3 mph79%29.89 "HgN/A
7:00 PM81 °FPassing clouds.7 mph79%29.86 "HgN/A
6:00 PM81 °FPassing clouds.9 mph79%29.86 "HgN/A
5:00 PM84 °FScattered clouds.13 mph70%29.83 "HgN/A
4:00 PM84 °FScattered clouds.12 mph70%29.83 "HgN/A
3:00 PM84 °FPartly sunny.13 mph70%29.83 "HgN/A
2:00 PM84 °FScattered clouds.14 mph74%29.83 "HgN/A
1:00 PM84 °FScattered clouds.16 mph70%29.86 "HgN/A
12:00 PM84 °FScattered clouds.16 mph70%29.86 "HgN/A
11:00 AM84 °FScattered clouds.14 mph74%29.86 "HgN/A
10:00 AM84 °FPassing clouds.13 mph74%29.89 "HgN/A
9:00 AM84 °FScattered clouds.8 mph74%29.89 "HgN/A
8:00 AM81 °FPassing clouds.No wind79%29.89 "HgN/A
7:00 AM77 °FScattered clouds.No wind83%29.89 "HgN/A
Weather by CustomWeather, © 2014

See weather overviewHow to use our weather pages